Overview Statistics Trail Chart Weather Telemetry Raw packets
 

This is the latest recevied weather packets stored in our database for station/object W1MDM-10. If no packets are shown the sender has not sent any weather packets the latest 10 day(s).

<< 1 2 3 4 >>
Time Temp. Humidity Pressure Rain* Wind** Luminosity Snow
1788382534 37.78° C 47% 1010.6 hPa 0 mm - - -
1788382234 37.78° C 45% 1010.8 hPa 0 mm - - -
1788381934 37.22° C 46% 1010.8 hPa 0 mm - - -
1788381634 37.78° C 45% 1010.8 hPa 0 mm - - -
1788381334 37.78° C 46% 1011.1 hPa 0 mm - - -
1788381034 37.22° C 45% 1011.2 hPa 0 mm - - -
1788380734 37.22° C 47% 1011.3 hPa 0 mm - - -
1788380434 37.22° C 48% 1011.4 hPa 0 mm - - -
1788380134 36.67° C 46% 1011.5 hPa 0 mm - - -
1788379834 36.67° C 48% 1011.6 hPa 0 mm - - -
1788379534 36.67° C 47% 1011.8 hPa 0 mm - - -
1788379234 36.67° C 47% 1011.9 hPa 0 mm - - -
1788378934 37.22° C 45% 1011.9 hPa 0 mm - - -
1788378634 37.22° C 46% 1012 hPa 0 mm - - -
1788378334 36.67° C 49% 1012.1 hPa 0 mm - - -
1788378034 36.67° C 48% 1012.2 hPa 0 mm - - -
1788377734 36.67° C 48% 1012.3 hPa 0 mm - - -
1788377435 36.67° C 50% 1012.3 hPa 0 mm - - -
1788377134 36.67° C 49% 1012.4 hPa 0 mm - - -
1788376834 36.67° C 50% 1012.6 hPa 0 mm - - -
1788376534 36.11° C 51% 1012.6 hPa 0 mm - - -
1788376234 36.11° C 53% 1012.7 hPa 0 mm - - -
1788375934 35.56° C 52% 1012.8 hPa 0 mm - - -
1788375634 35.56° C 55% 1013 hPa 0 mm - - -
1788375334 35.56° C 54% 1013 hPa 0 mm - - -

* Rain latest hour (hover to see other rain measurements)
** Current wind speed in m/s (hover to see current wind gust speed)